STARLINK-1531, 46572

Orbit data source: Space-Track

STARLINK-1531, 46572 is a payload satellite owned by SpaceX/Seattle (US) in LEO that was launched on Tue, 06 Oct 2020 UTC via an FALCON 9 launch vehicle from the Air Force Eastern Test Range (AFETR). Payload-class satellites include a variety of spacecraft equipped with specific instruments for various scientific and technological missions. These include communications satellites like Starlink; space stations such as the ISS; scientific satellites like the Hubble; Earth observation satellites from companies like Planet Labs, Umbra, and HawkEye 360; GPS; miniature CubeSats for education and research; and military/defense satellites.

Loading next visibility...
Identifier
46572, 2020-070AS
Orbit
LEO
Country
Flag of USUS
Related business
Manufacturer
SpaceX/Seattle
Mission
Partially operational Commercial Communications
Bus & Motor
STARLINK, Unknown motor
Mass
260 kg wet, ~248 kg dry
Launch date (UTC)
2020-10-06 (6 years ago)
Launch vehicle
FALCON 9
Launch site
Air Force Eastern Test Range (AFETR)
Object type
Payload
Rocket body
Debris
Shape & HBR
Box + 1 Pan, 10.1 m
Radar Cross Section
13.562 m², Large (>1 m²)

Expand to show TLE details & history
Last TLE update: 6 hours ago

TLE from 6 hours ago
0 STARLINK-1531
1 46572U 20070AS  26170.33335648  .00401020  75837-4  96370-3 0  9993
2 46572  53.0440 352.3506 0009675 258.4173 243.7308 15.95877386  6038
Epoch: 2026-06-19T08:00Z
TLE epoch observation values (Epoch: 2026-06-19T08:00:01.999Z)
Latitude
29.52858°
Longitude
119.70741°
Altitude
290.343 km
Speed
7.736 km/s
True Right ascension
09h 49m 07s
True Declination
29° 22' 16"
Sunlit
Object was in daylight at epoch
Visualization orbit readout
Latitude
Unknown
Longitude
Unknown
Altitude
Unknown
Speed
Unknown
Apparent Right ascension
Unknown
Apparent Declination
Unknown
Sunlit
N/A
Visualization observer readout
Local Sidereal Time
01:04:09
Azimuth
Unknown
Elevation
Unknown
Doppler factor
Unknown
Orbital elements
Apogee altitude
292.601 km
Perigee altitude
279.706 km
Semi-major axis
6,664.291 km
Eccentricity
0.00097
Inclination
53.044°
RAAN
352.3506°
Arg. of periapsis
258.4173°
True anomaly
243.63144°
Mean anomaly
243.7308°
Eccentric anomaly
243.68111°
Mean motion
3.98944 °/min
Orbital period
90.24 mins
BSTAR
0.0009637
Loading maneuver chart data...
Computing Atmospheric mass density...

Documentation

Showing up to 5 results
|